User: anonymous   Login
Location: Taipo
(41.0000°S, 175.9500°E)
Time: 18:06:11
(UTC+00:00)
Language:

Cosmos 407 Rocket - Orbit

View from above orbital plane
View from above orbital plane
View from above satellite
View from above satellite

Ground track
Ground track

The orbit data is extracted from the following two-line orbital elements,

1 05175U 71035B   24176.42497178  .00000395  00000-0  13645-3 0  9995
2 05175  74.0464 169.3246 0028271 103.1649 257.2662 14.38747150783288
Epoch (UTC): 24 June 2024 10:11:57
Eccentricity: 0.0028271
inclination: 74.0464°
perigee height: 742 km
apogee height: 783 km
right ascension of ascending node: 169.3246°
argument of perigee: 103.1649°
revolutions per day: 14.38747150
mean anomaly at epoch: 257.2662°
orbit number at epoch: 78328

The dashed part of the orbit path shows where the satellite is in the earth's shadow,  

DLR